Tracking 19794 objects as of 22-Jul-2019
HD Live streaming from Space Station
objects crossing your sky now

ESSA 3 (TOS-A)

Track ESSA 3 (TOS-A) now!
10-day predictions
ESSA 3 (TOS-A) is classified as:


NORAD ID: 2435
Int'l Code: 1966-087A
Perigee: 1,392.8 km
Apogee: 1,493.5 km
Inclination: 100.9 °
Period: 114.6 minutes
Semi major axis: 7814 km
RCS: 0.8135 m2 (medium)
Launch date: October 2, 1966
Source: United States (US)
Launch site: AIR FORCE WESTERN TEST RANGE (AFWTR)
aabbcc
Your satellite tracking list
Your tracking list is empty




NASA's NSSDC Master Catalog

Two Line Element Set (TLE):
1  2435U 66087A   19202.90618583 -.00000045 +00000-0 -26489-4 0  9999
2  2435 100.9481 236.8573 0064428 049.3399 009.3286 12.56841391422134
Source of the keplerian elements: AFSPC